Date String (YYYY-MM-DD hh:mm:ss) UTC,Instrument flags,Ambient pressure (hPa),Sample flow (lpm),Bypass flow (lpm),Sample temperature (°C),Ambient temperature (°C),ASC tube jacket temperature (°C),LED temperature (°C),Box temperature (°C),Sample RH (%),Span deviation,Mass concentration (μg/m³),Mass concentration (μg/m³),Mass concentration (μg/m³)
DateTimeUTC,F1_M11,P_M11,Q1_M11,Q2_M11,T1_M11,T2_M11,T3_M11,T4_M11,T5_M11,U1_M11,ZSPAN_M11,X0_M11,X2_M11,X1_M11
2021-11-27 22:00:00,,0830.4,5.00,0.00,25.8,25.1,00.0,34.8,27.5,10.9,0000.0,0009.59,0002.16,0001.22
2021-11-27 22:01:00,,0830.4,5.01,0.00,25.8,25.1,00.0,34.8,27.5,10.9,0000.0,0009.58,0002.16,0001.23
2021-11-27 22:02:00,,0830.4,4.99,0.00,25.8,25.1,00.0,34.8,27.5,11.0,0000.0,0009.60,0002.16,0001.22
2021-11-27 22:03:00,,0830.4,5.00,0.00,25.8,25.1,00.0,34.8,27.6,11.0,0000.0,0009.74,0002.22,0001.23
2021-11-27 22:04:00,,0830.4,5.00,0.00,25.8,25.1,00.0,34.8,27.6,11.0,0000.0,0009.82,0002.25,0001.24
2021-11-27 22:05:00,,0830.4,5.00,0.00,25.8,25.1,00.0,34.8,27.5,10.9,0000.0,0010.14,0002.26,0001.26
2021-11-27 22:06:00,,0830.4,5.00,0.00,25.8,25.1,00.0,34.8,27.5,10.9,0000.0,0010.07,0002.23,0001.27
2021-11-27 22:07:00,,0830.4,5.00,0.00,25.8,25.1,00.0,34.8,27.5,10.9,0000.0,0010.19,0002.21,0001.27
2021-11-27 22:08:00,,0830.4,5.01,0.00,25.8,25.1,00.0,34.8,27.5,11.0,0000.0,0009.92,0002.22,0001.28
2021-11-27 22:09:00,,0830.4,5.00,0.00,25.8,25.1,00.0,34.8,27.5,10.9,0000.0,0009.71,0002.24,0001.31
2021-11-27 22:10:00,,0830.4,5.01,0.00,25.8,25.1,00.0,34.8,27.5,10.9,0000.0,0008.99,0002.27,0001.33
2021-11-27 22:11:00,,0830.4,5.00,0.00,25.8,25.0,00.0,34.8,27.5,10.9,0000.0,0008.35,0002.23,0001.32
2021-11-27 22:12:00,,0830.5,5.00,0.00,25.8,25.0,00.0,34.8,27.5,10.9,0000.0,0008.24,0002.19,0001.34
2021-11-27 22:13:00,,0830.4,5.01,0.00,25.7,25.0,00.0,34.8,27.5,11.0,0000.0,0008.23,0002.17,0001.35
2021-11-27 22:14:00,,0830.3,4.99,0.00,25.8,25.0,00.0,34.8,27.6,11.0,0000.0,0008.22,0002.14,0001.35
2021-11-27 22:15:00,,0830.3,5.00,0.00,25.8,25.1,00.0,34.8,27.5,11.0,0000.0,0008.39,0002.17,0001.35
2021-11-27 22:16:00,,0830.2,4.99,0.00,25.8,25.1,00.0,34.8,27.5,11.0,0000.0,0008.38,0002.19,0001.36
2021-11-27 22:17:00,,0830.2,5.01,0.00,25.8,25.1,00.0,34.8,27.6,11.0,0000.0,0008.96,0002.21,0001.37
2021-11-27 22:18:00,,0830.2,5.00,0.00,25.8,25.1,00.0,34.8,27.6,11.0,0000.0,0008.46,0002.23,0001.37
2021-11-27 22:19:00,,0830.2,5.01,0.00,25.8,25.1,00.0,34.8,27.6,11.0,0000.0,0007.60,0002.22,0001.37
2021-11-27 22:20:00,,0830.2,5.00,0.00,25.8,25.1,00.0,34.8,27.6,11.0,0000.0,0007.84,0002.22,0001.37
2021-11-27 22:21:00,,0830.3,5.00,0.00,25.8,25.1,00.0,34.8,27.5,11.0,0000.0,0007.83,0002.17,0001.37
2021-11-27 22:22:00,,0830.2,4.99,0.00,25.8,25.0,00.0,34.8,27.5,11.0,0000.0,0007.88,0002.19,0001.38
2021-11-27 22:23:00,,0830.2,5.00,0.00,25.8,25.1,00.0,34.8,27.5,11.0,0000.0,0008.23,0002.22,0001.39
2021-11-27 22:24:00,,0830.2,5.01,0.00,25.7,25.0,00.0,34.8,27.5,11.0,0000.0,0008.47,0002.29,0001.39
2021-11-27 22:25:00,,0830.2,4.99,0.00,25.7,25.0,00.0,34.8,27.5,11.0,0000.0,0008.38,0002.36,0001.42
2021-11-27 22:26:00,,0830.1,5.01,0.00,25.7,25.0,00.0,34.8,27.5,11.0,0000.0,0008.18,0002.34,0001.43
2021-11-27 22:27:00,,0830.1,5.00,0.00,25.7,25.0,00.0,34.8,27.5,11.0,0000.0,0007.89,0002.35,0001.42
2021-11-27 22:28:00,,0830.1,4.99,0.00,25.7,25.0,00.0,34.8,27.4,11.1,0000.0,0007.48,0002.37,0001.42
2021-11-27 22:29:00,,0830.1,5.01,0.00,25.7,24.9,00.0,34.7,27.4,11.1,0000.0,0007.44,0002.39,0001.43
2021-11-27 22:30:00,,0830.1,5.01,0.00,25.7,24.9,00.0,34.7,27.4,11.1,0000.0,0007.60,0002.48,0001.44
2021-11-27 22:31:00,,0830.1,5.00,0.00,25.6,24.8,00.0,34.7,27.3,11.1,0000.0,0008.00,0002.55,0001.44
2021-11-27 22:32:00,,0830.2,5.00,0.00,25.6,24.8,00.0,34.7,27.3,11.1,0000.0,0008.15,0002.60,0001.44
2021-11-27 22:33:00,,0830.1,5.00,0.00,25.6,24.8,00.0,34.7,27.4,11.2,0000.0,0008.28,0002.70,0001.45
2021-11-27 22:34:00,,0830.2,5.00,0.00,25.6,24.8,00.0,34.7,27.4,11.2,0000.0,0008.17,0002.71,0001.44
2021-11-27 22:35:00,,0830.2,5.00,0.00,25.6,24.9,00.0,34.7,27.4,11.2,0000.0,0007.73,0002.65,0001.42
2021-11-27 22:36:00,,0830.2,5.00,0.00,25.6,24.9,00.0,34.7,27.4,11.2,0000.0,0007.63,0002.56,0001.41
2021-11-27 22:37:00,,0830.2,5.00,0.00,25.6,24.9,00.0,34.7,27.4,11.2,0000.0,0007.63,0002.53,0001.42
2021-11-27 22:38:00,,0830.2,5.02,0.00,25.6,24.9,00.0,34.7,27.4,11.3,0000.0,0008.49,0002.55,0001.43
2021-11-27 22:39:00,,0830.2,4.99,0.00,25.6,25.0,00.0,34.7,27.4,11.3,0000.0,0008.27,0002.58,0001.41
2021-11-27 22:40:00,,0830.1,4.99,0.00,25.6,25.0,00.0,34.7,27.4,11.3,0000.0,0008.07,0002.63,0001.40
2021-11-27 22:41:00,,0830.2,5.01,0.00,25.6,25.0,00.0,34.7,27.4,11.3,0000.0,0007.98,0002.60,0001.39
2021-11-27 22:42:00,,0830.1,5.01,0.00,25.6,25.0,00.0,34.7,27.4,11.3,0000.0,0007.58,0002.60,0001.38
2021-11-27 22:43:00,,0830.2,4.99,0.00,25.6,25.0,00.0,34.7,27.4,11.3,0000.0,0007.29,0002.59,0001.36
2021-11-27 22:44:00,,0830.3,5.01,0.00,25.7,25.0,00.0,34.7,27.4,11.3,0000.0,0007.31,0002.55,0001.35
2021-11-27 22:45:00,,0830.3,5.00,0.00,25.7,25.0,00.0,34.7,27.5,11.3,0000.0,0007.77,0002.62,0001.35
2021-11-27 22:46:00,,0830.2,5.00,0.00,25.7,25.0,00.0,34.7,27.5,11.3,0000.0,0007.80,0002.64,0001.36
2021-11-27 22:47:00,,0830.2,5.00,0.00,25.7,25.0,00.0,34.7,27.5,11.3,0000.0,0007.97,0002.71,0001.36
2021-11-27 22:48:00,,0830.3,5.01,0.00,25.7,25.0,00.0,34.7,27.5,11.3,0000.0,0007.96,0002.72,0001.37
2021-11-27 22:49:00,,0830.2,5.00,0.00,25.7,25.0,00.0,34.7,27.5,11.2,0000.0,0006.74,0002.73,0001.38
2021-11-27 22:50:00,,0830.3,4.99,0.00,25.7,25.0,00.0,34.7,27.4,11.2,0000.0,0006.77,0002.74,0001.40
2021-11-27 22:51:00,,0830.3,5.01,0.00,25.6,24.9,00.0,34.7,27.4,11.2,0000.0,0006.88,0002.72,0001.41
2021-11-27 22:52:00,,0830.2,4.99,0.00,25.6,25.0,00.0,34.7,27.4,11.2,0000.0,0006.90,0002.72,0001.42
2021-11-27 22:53:00,,0830.2,5.01,0.00,25.7,25.0,00.0,34.7,27.5,11.2,0000.0,0007.44,0002.70,0001.43
2021-11-27 22:54:00,,0830.3,4.99,0.00,25.7,25.0,00.0,34.7,27.5,11.2,0000.0,0007.51,0002.74,0001.44
2021-11-27 22:55:00,,0830.4,5.02,0.00,25.7,25.0,00.0,34.7,27.4,11.2,0000.0,0007.55,0002.77,0001.44
2021-11-27 22:56:00,,0830.4,5.00,0.00,25.7,25.0,00.0,34.7,27.4,11.2,0000.0,0007.12,0002.70,0001.45
2021-11-27 22:57:00,,0830.4,4.99,0.00,25.6,24.9,00.0,34.7,27.4,11.2,0000.0,0007.29,0002.72,0001.45
2021-11-27 22:58:00,,0830.3,5.01,0.00,25.7,25.0,00.0,34.7,27.4,11.2,0000.0,0007.37,0002.75,0001.45
2021-11-27 22:59:00,,0830.3,5.01,0.00,25.7,25.0,00.0,34.7,27.4,11.2,0000.0,0007.82,0002.78,0001.46
